Wind_Speed
10 8 7 6 6 5 5 5 5 5 5 4 3 2 1 1 2 3 3 4 5 6 6 7 7 8 9 9 10 11 11 12 12 13 13 13 14 15 15 16 17 18 20 20 19 18 19 14 10 10 7 5 3 1 4 7 9 7 7 7 6 3 1 1 1 4 6 4 4 3 3 2 0 1 5 5 4 5 3 2 3 4 5 6 8 7 6 6
9 7 7 6 6 6 5 5 4 4 4 3 2 1 0 1 2 3 3 4 5 6 7 7 8 8 9 9 10 11 11 12 12 12 12 12 13 13 14 15 16 17 18 19 18 16 17 14 11 8 7 7 3 2 4 6 8 8 7 7 7 5 4 1 1 2 5 5 5 5 3 0 1 1 4 5 6 5 3 2 2 4 5 6 8 8 8 7
8 7 7 7 6 5 4 3 3 2 2 2 1 1 1 2 2 3 4 5 6 6 7 7 8 8 9 9 10 11 11 11 12 12 12 12 12 12 13 14 15 15 16 17 16 15 16 15 13 9 8 8 3 1 4 6 7 8 8 8 8 6 6 3 1 3 3 5 5 4 2 1 1 1 1 3 5 4 3 3 3 3 4 6 7 8 8 8
8 8 7 6 5 4 3 2 2 2 2 2 1 1 2 2 3 4 5 6 7 7 8 8 8 8 9 9 10 11 11 11 11 12 11 11 11 11 12 12 13 13 14 15 15 14 14 14 13 11 8 8 6 2 3 5 6 6 7 8 8 7 5 3 2 3 3 4 3 2 2 2 2 1 0 2 5 3 3 4 4 3 3 5 7 7 8 8
8 7 6 5 4 3 3 3 2 2 2 2 2 2 3 4 5 6 7 8 9 9 9 9 9 9 9 9 10 11 11 11 11 11 11 11 11 11 11 11 11 12 13 13 14 13 12 13 13 11 8 8 7 4 0 3 5 5 5 7 8 7 5 2 3 3 4 4 2 2 2 3 3 0 0 0 3 2 2 3 4 4 3 4 7 7 6 7
7 6 5 4 4 3 3 3 2 2 2 2 3 4 5 7 8 9 10 11 11 11 11 10 10 9 9 9 9 10 11 11 11 11 11 11 11 11 11 10 10 11 12 13 13 12 11 11 11 10 9 7 7 5 2 1 3 4 4 6 7 8 5 4 5 4 4 4 2 2 3 4 3 1 1 1 1 1 1 2 3 4 4 4 6 7 7 6
7 6 5 4 4 4 3 3 3 3 4 5 6 7 9 10 11 12 13 13 13 12 12 11 10 9 9 9 9 9 11 11 11 11 11 11 11 11 10 9 9 10 10 11 11 10 10 9 10 10 9 7 6 4 3 3 1 3 4 4 6 7 5 6 7 6 5 5 4 4 4 4 4 2 1 2 1 0 1 2 2 4 4 4 5 6 7 7
6 5 5 5 4 4 4 4 5 5 6 8 9 10 11 13 13 14 14 14 13 12 12 11 11 10 10 11 11 11 12 12 12 12 11 11 11 11 10 10 10 9 8 9 9 8 8 7 8 7 7 7 6 4 3 3 2 1 1 3 4 5 6 6 6 6 7 8 7 5 5 6 5 4 2 3 3 2 1 2 2 4 5 5 4 4 6 7
6 5 5 5 5 5 6 6 7 8 9 10 11 12 13 14 14 14 14 14 13 13 12 12 12 12 12 13 13 13 13 13 13 13 12 12 12 11 11 11 10 10 8 8 8 7 7 6 6 5 7 6 6 4 3 2 1 2 2 0 1 3 5 7 6 6 7 8 8 6 7 8 7 5 3 4 3 2 2 3 3 3 4 5 5 4 4 6
6 6 6 6 6 7 8 9 10 11 12 12 13 14 14 14 14 14 14 14 14 14 14 14 14 13 13 14 14 13 12 12 13 13 12 11 12 12 12 11 11 10 9 9 8 8 7 6 4 3 5 4 4 4 2 2 0 1 2 2 3 2 3 5 6 6 7 8 7 6 8 9 8 7 5 5 4 3 4 3 3 4 5 5 5 5 4 4
6 7 7 8 8 9 10 11 12 13 13 13 14 14 14 14 14 14 14 14 14 14 13 12 12 11 11 13 13 11 9 10 13 14 13 12 11 12 12 11 11 10 9 9 8 8 8 7 6 2 4 3 5 2 1 1 0 3 3 2 3 3 2 2 5 7 9 8 7 7 8 9 10 8 6 5 4 5 5 3 3 5 5 5 5 5 5 5
7 8 9 10 11 12 12 13 13 13 14 14 14 14 14 14 14 13 13 12 12 11 10 9 9 9 10 12 10 9 8 9 12 13 14 14 11 11 12 12 11 10 10 9 9 9 8 8 8 3 3 3 4 2 3 2 1 4 3 2 2 1 1 2 3 7 9 9 8 7 8 10 10 10 7 6 5 5 6 4 3 4 4 4 5 6 5 5
9 10 11 12 12 13 13 14 14 13 14 14 14 13 12 12 11 10 10 10 10 9 8 8 8 8 9 12 9 9 10 9 10 11 12 14 13 11 12 12 12 11 11 10 9 9 8 7 7 4 2 2 3 3 3 3 3 4 2 2 2 0 2 4 2 5 8 9 9 8 8 9 11 11 9 8 6 5 5 4 4 3 3 4 5 6 6 6
10 11 12 13 13 13 14 14 14 13 13 12 10 9 8 8 7 7 8 8 9 9 8 8 8 8 10 11 9 10 11 11 10 10 10 12 13 12 12 13 13 12 11 12 11 10 8 8 8 5 2 0 2 1 0 1 1 1 1 2 2 3 4 4 3 2 7 8 9 9 8 9 10 10 9 9 7 6 6 5 4 3 4 5 5 5 7 7
11 12 12 13 14 14 14 14 13 11 9 7 6 5 5 6 6 6 7 7 8 8 8 8 9 9 11 11 10 10 11 11 11 11 11 13 13 14 13 14 14 14 13 12 12 12 10 9 8 6 3 1 1 2 3 2 2 1 2 5 5 6 5 3 3 1 5 9 9 9 10 10 10 10 10 10 8 7 6 5 5 5 4 5 4 5 5 7
12 12 13 14 14 14 13 11 9 6 5 4 4 4 5 5 6 6 7 7 7 7 8 9 9 9 10 11 11 10 11 12 12 12 13 15 15 15 14 15 15 15 15 15 14 14 12 10 9 7 6 3 2 4 4 3 3 1 2 6 6 6 4 3 4 3 2 8 10 10 10 10 10 10 11 10 8 8 7 6 6 6 6 5 5 5 4 5
12 13 14 14 13 11 8 5 4 3 3 3 4 4 4 5 5 6 6 7 7 7 8 9 10 9 10 11 12 12 12 13 15 15 15 17 17 17 16 15 16 16 16 16 16 15 14 12 11 9 8 7 4 5 5 4 4 2 1 4 7 6 3 3 4 3 2 2 8 11 10 10 10 11 12 10 8 8 8 8 7 7 7 6 6 5 5 5
13 13 12 11 8 5 3 2 2 2 3 3 3 3 3 4 4 5 6 7 7 8 8 10 11 11 10 11 12 12 14 16 17 18 18 18 18 18 18 16 16 17 17 17 17 17 16 14 13 11 10 9 6 6 6 5 5 3 0 3 6 4 4 3 4 3 2 2 3 8 10 11 11 11 12 11 10 9 8 8 8 8 8 7 7 6 6 5
11 10 8 5 3 2 2 3 3 2 2 2 2 2 3 4 4 5 7 8 8 8 9 11 13 13 12 12 12 13 15 17 18 19 19 20 20 19 19 19 18 17 17 18 18 19 19 16 14 12 12 11 9 9 9 9 6 2 0 2 4 1 2 3 4 3 1 1 1 4 6 9 11 12 12 12 12 11 9 9 9 9 9 9 8 7 7 6
8 6 5 3 3 3 3 3 2 2 1 1 1 2 3 4 5 6 8 9 9 9 10 13 15 15 14 14 15 14 15 17 19 20 19 19 21 21 21 20 20 19 17 18 19 20 21 18 15 14 14 13 12 12 11 12 8 1 1 2 3 2 1 3 2 3 1 1 1 3 1 5 8 11 14 14 14 13 11 10 10 11 11 10 9 9 9 8
5 5 4 4 4 4 3 3 2 1 0 1 1 3 4 5 6 7 8 9 10 11 11 14 16 16 16 17 18 17 17 18 20 22 19 18 20 21 22 22 21 20 19 19 21 22 21 18 16 16 16 14 13 13 13 12 8 4 2 3 5 5 3 1 1 2 1 2 1 3 2 3 6 7 11 13 14 14 13 12 11 11 12 11 10 10 11 10
5 5 5 4 5 4 3 2 1 1 0 1 1 3 4 6 7 8 9 10 11 12 13 14 16 18 19 19 20 19 19 20 21 22 18 17 19 21 22 22 22 21 21 21 21 22 19 16 17 17 16 15 14 15 14 11 8 6 5 5 6 5 4 2 2 2 3 1 1 3 2 2 2 3 7 9 11 13 13 13 12 12 12 12 12 12 12 11
5 5 5 5 5 4 3 2 2 1 0 1 2 3 5 6 7 8 10 11 12 13 14 15 17 19 20 22 22 23 22 21 23 24 19 15 17 21 22 22 22 21 21 21 21 21 18 16 18 18 18 17 15 15 14 12 9 7 7 9 9 6 4 3 5 2 3 2 2 5 3 0 1 1 4 5 7 9 11 13 12 12 12 12 13 12 12 13
6 6 6 5 4 3 3 3 2 1 1 2 3 4 5 6 7 9 10 12 13 14 15 16 18 19 21 23 24 24 22 21 23 24 21 17 15 18 21 22 21 20 21 21 21 19 18 19 21 20 20 20 19 16 12 12 11 9 8 10 10 6 5 3 7 5 1 3 4 5 5 2 0 2 3 4 7 8 7 9 10 12 13 14 14 13 13 14
6 6 5 4 4 3 3 3 2 2 2 3 4 5 7 7 8 10 11 12 14 16 16 17 18 19 20 22 22 21 21 22 23 23 20 17 15 15 18 20 19 19 20 21 22 19 17 20 22 20 19 20 20 17 12 10 11 10 8 8 9 6 5 5 8 7 1 2 5 6 5 3 1 3 3 4 7 6 5 6 7 11 13 14 14 13 13 16
7 6 5 4 4 4 3 2 2 3 4 5 6 6 8 9 10 11 12 14 16 15 16 17 18 19 20 21 23 24 25 25 23 22 19 15 13 14 15 15 16 17 18 20 23 20 18 18 19 19 19 19 20 18 13 11 11 9 8 8 9 8 6 8 10 8 3 5 6 7 7 5 2 3 3 4 4 4 3 5 6 9 11 12 13 12 12 14
6 6 5 4 4 3 3 2 3 4 5 6 7 8 9 10 11 12 14 15 16 15 15 17 19 21 22 23 26 26 27 27 23 22 21 16 11 12 15 14 13 15 17 20 21 18 18 18 16 16 18 18 16 12 9 10 11 9 9 8 7 9 9 10 11 9 8 9 8 7 10 9 4 2 2 4 3 3 1 5 6 9 11 12 13 12 12 14
7 6 5 4 3 3 3 3 4 5 6 7 8 9 10 11 13 14 15 16 17 16 16 18 20 22 23 25 27 27 27 27 23 21 21 17 13 13 16 17 13 13 16 18 18 16 17 19 16 13 14 13 10 6 4 10 12 7 8 7 6 10 9 7 11 11 11 11 9 9 12 10 4 3 3 3 3 2 2 5 6 8 11 13 13 13 13 14
6 5 4 4 3 3 3 4 5 6 7 8 9 10 11 13 14 15 16 17 18 18 18 20 21 23 26 26 27 27 27 27 23 21 21 18 16 15 17 18 14 12 14 16 15 14 17 18 17 15 14 13 11 9 10 15 14 11 13 11 8 12 9 5 11 11 10 12 10 9 12 10 5 5 5 3 2 0 2 4 6 7 9 11 12 12 13 14
6 5 4 3 3 3 4 5 6 7 8 8 9 11 12 14 14 16 18 19 20 20 21 23 23 25 27 27 27 26 26 26 25 23 23 21 18 18 20 19 15 11 14 16 12 11 13 15 18 19 18 19 17 16 18 20 18 14 14 14 12 14 12 9 12 12 13 14 9 9 14 15 9 5 5 4 4 4 3 2 3 4 5 7 9 11 12 13
6 5 4 3 3 4 5 6 7 8 8 9 10 11 13 15 16 17 18 19 20 21 22 24 25 25 26 27 27 26 24 25 25 23 23 22 19 18 20 20 17 13 12 14 12 10 10 12 17 21 21 21 20 19 20 22 20 16 14 15 15 15 15 13 13 14 15 12 8 10 15 17 10 4 6 8 6 5 2 1 2 1 1 3 6 8 10 12
5 4 3 3 4 5 6 7 7 8 9 10 11 11 13 14 15 17 18 19 20 21 21 23 24 24 24 25 25 24 21 21 24 23 23 22 20 18 19 19 17 14 10 11 12 13 13 14 18 22 23 23 21 21 21 20 21 20 17 18 19 18 18 15 14 15 14 9 7 11 15 16 12 7 8 10 8 6 3 1 2 0 1 1 4 6 7 10
5 4 3 4 5 6 7 8 8 9 10 10 11 11 12 14 15 17 18 19 20 21 21 22 22 22 22 23 24 23 19 17 19 20 22 24 21 19 19 20 19 15 12 10 11 14 13 13 17 20 21 24 24 22 21 21 22 22 19 19 21 21 19 16 14 14 12 7 6 9 12 11 10 8 10 11 10 8 5 4 5 4 3 2 3 5 7 8
4 3 4 5 6 7 8 8 8 9 10 11 12 12 12 14 15 17 18 20 20 21 21 22 22 21 22 24 24 21 17 16 17 18 22 23 19 17 17 18 19 18 16 12 10 13 11 9 14 17 17 21 25 24 25 27 24 20 18 21 25 24 20 16 14 13 11 8 8 9 9 8 7 8 11 14 13 12 10 8 7 6 4 3 2 4 7 8
4 4 5 6 7 8 8 8 8 10 11 11 12 13 13 14 15 17 18 18 19 21 21 21 21 22 24 26 25 21 16 16 18 19 23 22 17 17 17 15 17 20 19 16 13 14 14 13 15 20 20 20 23 24 25 27 24 20 19 21 23 22 18 14 11 10 10 10 10 10 8 7 6 9 13 13 12 13 12 8 5 4 3 3 3 3 6 8
4 5 6 7 8 9 9 9 9 10 11 12 13 13 12 13 15 18 18 17 18 21 21 21 22 23 25 27 25 21 17 15 15 16 19 20 17 19 20 18 19 21 21 21 17 15 17 18 18 21 21 19 22 24 25 25 22 19 20 21 18 15 12 10 9 9 10 11 11 9 9 7 6 11 14 13 13 13 9 4 4 3 3 3 4 4 6 7
5 6 7 8 9 9 10 9 9 10 11 13 14 13 12 12 14 17 18 18 18 20 21 21 22 23 25 26 25 23 19 15 14 14 16 19 18 20 23 23 24 23 21 21 18 17 18 18 19 20 19 20 25 27 25 24 21 14 14 17 17 14 11 11 12 13 13 12 10 10 11 9 8 12 14 14 15 12 8 5 3 3 3 4 5 6 7 8
6 7 8 9 9 10 10 9 9 10 11 13 15 16 14 13 14 15 17 18 18 20 21 20 21 22 22 24 25 23 20 16 16 16 16 20 20 19 21 23 24 24 21 20 19 18 16 15 18 21 20 20 25 27 24 21 20 16 13 15 18 18 16 15 15 16 17 15 11 11 12 11 11 12 12 14 14 10 7 6 2 2 4 6 8 8 8 8
7 8 9 9 9 10 10 9 10 11 12 13 14 16 16 15 16 16 17 18 18 20 22 20 22 23 21 23 24 22 19 17 17 17 18 21 22 19 19 20 23 24 21 20 20 17 15 13 15 20 22 20 22 25 23 18 18 18 16 16 17 19 19 20 20 18 18 15 12 12 12 13 15 13 11 13 12 9 6 3 2 4 5 6 8 7 7 8
8 9 9 10 10 10 10 10 10 11 13 13 12 14 16 17 17 16 18 19 19 21 23 22 23 24 22 23 24 22 20 17 16 18 18 20 21 19 18 17 19 22 21 20 19 16 16 13 12 17 22 24 25 25 23 19 19 19 18 19 21 21 19 21 21 19 17 15 14 12 10 12 14 12 11 12 11 8 5 3 0 4 6 6 5 4 6 8
9 9 9 9 10 10 11 10 11 12 14 13 12 13 16 17 18 17 18 21 21 22 24 23 23 25 24 23 23 24 23 18 15 18 19 18 17 17 17 15 16 19 20 20 19 17 16 16 13 15 21 26 29 29 26 23 23 23 20 21 25 24 18 15 17 16 17 16 16 15 12 11 12 11 10 10 9 7 6 4 3 3 5 6 6 5 6 9
10 9 9 9 10 11 12 11 11 13 15 14 13 13 14 16 18 17 18 21 22 22 24 24 24 26 26 24 24 25 25 23 19 17 17 17 15 15 15 15 15 16 18 19 20 17 16 17 16 17 22 26 26 28 28 25 24 26 23 21 24 25 21 18 16 14 16 20 20 17 14 12 12 11 10 9 9 9 8 7 5 4 7 8 8 8 7 8
9 9 9 10 11 12 12 11 12 13 15 16 15 13 12 15 18 18 17 20 22 23 24 24 24 25 26 25 25 26 26 26 23 18 16 16 14 14 14 13 14 16 17 19 19 18 17 18 18 20 23 25 23 25 29 27 25 27 24 21 25 27 24 21 17 13 16 21 20 17 15 14 11 9 8 7 8 9 8 7 6 7 10 9 10 10 9 8
9 9 10 11 11 12 12 12 12 13 14 16 17 15 12 13 17 19 17 18 21 23 25 24 23 24 26 25 25 26 27 25 24 22 19 16 15 15 14 13 13 14 15 17 16 16 17 19 19 20 23 24 22 25 29 28 26 27 24 23 29 30 24 20 18 16 15 16 18 18 17 14 9 6 6 7 9 10 10 10 9 9 11 10 11 11 10 9
10 10 11 11 11 13 13 12 13 13 14 15 17 17 15 13 16 18 18 18 19 23 25 24 23 24 25 26 25 26 27 25 24 23 19 15 14 14 14 13 14 14 14 16 16 14 15 19 19 19 23 24 24 28 30 29 27 27 26 26 29 28 22 22 24 23 19 17 17 17 15 10 7 5 6 7 8 11 12 12 11 10 10 11 12 11 11 11
11 11 11 11 12 14 13 13 13 14 14 15 16 17 17 16 17 18 20 20 19 22 25 24 24 25 25 26 25 24 25 26 24 22 19 16 14 13 13 13 14 15 13 14 16 13 14 17 18 19 21 24 26 28 30 31 31 28 25 27 29 25 23 25 27 26 23 18 13 11 10 5 1 4 6 6 6 8 11 12 12 10 10 12 13 11 11 10
11 11 12 11 12 14 14 13 14 14 15 15 16 16 17 17 18 19 20 21 20 22 25 25 25 27 26 26 25 22 22 24 24 23 21 18 15 14 14 14 14 15 14 13 13 12 13 15 18 18 19 24 28 29 30 33 35 31 25 26 28 26 25 26 24 22 21 17 13 10 9 4 5 9 9 6 6 7 10 13 13 11 10 11 11 11 10 10
11 11 12 12 12 14 15 13 13 14 15 16 16 16 17 19 19 18 20 22 21 22 25 26 26 28 29 28 25 23 23 23 23 24 22 18 16 15 15 15 14 14 13 13 12 12 12 14 17 18 17 23 29 32 33 36 39 36 28 27 28 26 26 27 26 24 22 18 14 11 10 10 12 12 8 5 6 7 9 11 11 9 9 10 10 10 9 8
12 12 12 13 13 13 14 13 12 13 15 16 16 16 16 19 20 18 19 22 22 22 24 25 26 29 30 29 28 27 26 23 21 21 21 19 17 16 15 16 16 14 12 12 12 12 11 13 16 17 17 20 27 34 37 37 39 40 34 31 30 27 27 29 29 28 25 19 16 13 13 14 15 11 6 5 6 7 9 10 10 9 9 9 9 9 9 8
12 12 13 13 13 13 14 13 12 13 15 15 16 16 15 18 20 19 19 21 22 22 23 23 25 28 30 29 29 29 27 25 22 20 19 18 17 16 16 16 17 15 13 12 13 12 12 13 15 16 17 18 23 34 40 38 38 42 39 34 31 28 28 31 31 31 28 23 21 19 17 16 15 11 8 7 6 6 7 8 8 8 9 9 9 10 10 10
13 13 14 14 13 13 15 14 13 14 15 15 15 16 16 17 20 20 19 20 22 23 23 24 25 28 29 29 29 28 27 26 24 21 19 17 16 16 16 16 16 16 14 13 13 13 13 13 14 16 17 19 22 31 40 40 38 41 39 33 30 28 27 30 31 31 30 29 27 25 23 20 15 12 10 9 7 6 7 6 7 8 9 10 10 10 10 10
14 14 14 14 12 12 14 15 13 13 15 16 16 16 16 17 20 21 21 21 22 23 25 26 26 28 29 30 29 27 25 24 23 21 19 17 15 15 15 15 16 16 15 14 14 14 14 14 14 16 17 18 21 28 38 40 37 38 37 31 29 28 26 27 28 29 32 33 30 27 24 19 15 14 14 12 9 8 5 4 6 9 9 9 8 8 9 9
Wind_Direction
156 156 155 150 144 139 135 132 131 134 142 142 136 120 88 57 40 29 20 14 9 6 4 360 358 357 355 353 351 351 352 355 356 356 358 359 3 6 5 5 8 11 17 22 23 29 37 36 27 27 36 56 79 184 219 223 222 215 214 222 227 218 184 208 206 180 167 161 168 177 217 206 189 80 97 104 106 102 113 133 120 106 119 140 138 132 129 136
160 161 156 151 145 141 136 135 134 136 144 150 159 165 333 344 351 356 355 354 354 353 353 352 351 351 351 349 347 345 346 348 350 350 351 353 358 1 0 1 6 8 12 19 22 26 35 30 15 21 41 49 64 197 207 219 224 219 215 216 224 214 194 198 19 207 183 166 169 182 202 277 345 42 108 119 114 116 150 171 126 114 128 139 139 138 136 139
165 162 157 153 149 146 146 148 151 159 168 183 208 239 291 320 329 338 342 342 341 340 341 343 343 344 345 345 342 339 340 341 342 343 345 348 352 356 355 358 4 4 6 16 22 23 31 29 15 22 48 49 50 191 199 211 222 221 220 220 227 223 212 199 10 295 219 171 168 189 174 59 313 316 118 127 115 125 172 180 147 120 131 138 142 143 140 143
167 163 160 159 159 164 174 189 204 211 216 225 244 264 295 313 318 323 325 325 326 325 326 329 332 334 334 335 333 330 330 331 334 336 337 341 346 350 350 355 359 359 0 11 20 21 26 28 19 23 44 54 55 53 205 207 219 223 222 224 231 233 226 206 224 277 235 187 163 182 162 151 237 283 233 136 114 131 188 186 162 133 132 138 143 144 142 144
169 167 167 172 184 204 221 231 232 230 238 247 265 281 296 306 307 309 310 312 313 313 315 318 320 322 322 323 323 322 321 324 327 327 330 334 340 344 345 352 353 352 355 5 18 17 18 26 20 20 36 55 59 39 225 198 212 219 222 227 237 239 233 213 228 250 229 212 170 181 193 182 217 252 175 175 115 142 196 191 166 144 142 142 141 140 140 144
173 176 184 199 217 232 238 237 234 235 248 266 280 287 293 299 301 302 304 305 305 307 309 310 314 315 316 316 316 316 314 317 321 321 324 327 333 337 339 345 348 350 351 358 14 13 12 17 11 18 37 57 60 44 56 134 201 210 219 228 237 243 237 215 220 229 215 211 195 223 239 208 212 207 188 237 91 102 182 201 178 158 164 156 144 139 137 144
184 194 207 221 231 235 235 235 244 253 264 276 284 288 292 296 298 300 300 301 301 302 303 306 310 311 311 310 310 310 307 310 315 314 317 320 324 328 331 335 341 349 350 353 4 6 7 9 2 18 39 48 45 39 75 84 115 191 209 226 235 241 243 232 222 213 194 194 205 229 243 227 215 193 223 241 193 163 234 245 209 176 183 171 152 142 136 142
199 211 218 224 230 236 242 253 264 270 275 281 287 290 293 295 296 297 298 298 299 299 302 304 305 306 306 303 303 301 299 305 310 308 308 311 316 320 322 326 330 337 344 347 352 355 1 3 356 18 43 42 35 36 75 75 53 104 183 215 232 239 243 242 229 212 201 202 210 222 234 234 223 196 205 240 215 188 227 260 235 193 200 190 168 157 143 143
208 214 220 228 239 251 261 269 276 280 283 287 289 291 293 294 295 296 297 298 298 299 300 301 303 303 302 299 297 294 297 304 303 299 301 307 312 313 313 317 321 325 332 334 338 340 348 360 350 20 53 51 56 69 82 65 27 38 21 94 225 247 241 241 234 219 214 212 209 218 234 235 228 209 204 233 229 212 216 238 236 209 213 212 190 182 167 151
214 224 234 245 256 266 272 277 281 284 286 289 290 292 293 294 295 296 297 298 298 300 300 302 303 302 302 299 294 294 299 300 293 293 298 304 307 305 305 308 312 316 321 324 330 327 335 348 324 32 64 52 59 67 72 52 8 55 26 34 39 336 261 247 238 226 223 221 214 219 233 234 232 221 209 222 224 222 223 214 221 221 221 224 217 206 196 174
232 243 253 261 268 273 277 280 283 285 287 289 291 292 293 294 295 295 297 297 297 300 302 305 304 304 304 295 293 302 304 292 290 295 299 297 296 297 299 301 303 308 311 313 319 315 323 333 308 1 65 48 58 62 106 94 175 79 58 32 32 1 331 276 239 229 230 232 230 228 228 229 236 231 212 217 222 216 218 204 200 219 221 217 226 225 213 199
251 260 266 271 275 277 279 282 283 286 288 291 292 294 295 295 295 296 298 298 301 305 307 311 307 308 300 290 299 309 295 281 284 291 293 292 290 289 291 293 295 298 301 303 307 308 321 332 317 347 58 54 73 113 129 101 71 66 58 27 23 324 2 353 252 227 229 231 230 228 222 222 237 239 219 211 223 222 213 208 211 217 220 206 210 221 218 213
264 269 273 275 277 278 280 282 284 287 289 291 293 294 296 298 300 303 306 307 312 316 321 321 313 311 296 293 307 304 291 290 288 287 288 291 292 288 284 284 284 287 291 294 296 303 314 317 310 330 29 66 85 114 93 65 59 60 48 19 357 225 46 7 319 233 225 224 223 218 215 223 239 243 229 216 222 239 231 226 235 231 232 217 208 212 210 212
272 275 278 279 279 280 282 284 288 290 292 294 296 298 301 304 308 312 314 314 318 324 328 324 316 312 299 300 311 302 296 297 292 289 283 281 283 280 276 275 276 277 279 284 287 292 296 293 296 309 311 109 100 127 45 11 74 36 53 82 33 35 46 25 18 263 225 218 221 220 214 222 237 242 238 230 221 235 249 250 248 245 249 234 219 213 205 209
278 279 280 279 280 282 284 288 292 294 297 300 302 305 307 310 314 315 315 316 321 328 328 320 312 306 300 303 313 308 304 302 298 294 284 277 274 271 270 269 269 269 269 272 277 280 284 287 289 292 285 269 177 197 231 252 253 291 119 105 64 35 39 47 53 37 217 213 215 217 215 216 230 240 241 240 230 226 236 248 248 244 252 250 244 233 213 211
278 279 279 279 281 283 287 291 293 296 299 302 305 310 313 316 318 317 319 323 328 333 328 315 308 306 302 306 315 314 308 302 294 286 278 276 274 271 268 267 266 264 262 263 265 270 275 279 279 277 276 270 210 204 220 240 248 251 115 104 73 40 35 65 62 50 193 211 213 211 218 218 222 234 239 242 243 236 228 232 235 232 240 255 261 260 250 228
279 280 279 279 281 283 286 285 284 288 294 303 309 315 321 322 323 326 329 330 336 341 329 313 311 314 310 312 316 309 297 289 283 280 278 278 279 278 274 268 265 263 260 259 259 263 265 269 271 269 270 266 245 232 220 202 203 197 87 90 77 39 5 69 66 38 55 195 217 212 217 223 222 229 236 239 244 241 232 229 230 228 233 246 255 258 264 261
281 280 277 277 277 275 270 262 272 283 293 303 309 321 328 327 331 335 333 335 342 344 329 316 317 321 323 320 311 301 294 290 286 284 282 279 277 276 276 271 266 263 260 258 256 257 259 259 262 265 267 262 259 257 241 225 215 192 195 71 77 34 351 49 57 26 46 66 221 210 212 224 228 229 234 238 238 234 231 232 235 236 231 232 242 247 250 260
280 273 269 264 253 241 243 260 274 281 290 302 315 341 338 334 342 338 336 341 344 344 332 320 321 328 333 322 309 302 297 292 288 285 283 282 279 273 271 269 265 261 258 257 254 253 252 252 254 260 263 258 255 253 248 249 240 197 198 100 93 32 12 50 43 21 66 97 164 187 206 225 230 232 231 236 240 235 234 236 237 237 231 224 227 238 243 242
268 254 242 227 221 230 244 256 262 271 287 313 356 12 353 343 347 342 342 343 341 343 335 322 324 332 332 321 315 313 305 297 291 287 284 281 280 276 271 266 264 260 255 252 251 249 248 248 248 251 255 257 257 255 255 255 241 229 293 175 155 192 82 56 21 8 28 62 150 149 171 232 231 237 232 231 237 237 236 234 232 232 232 231 225 228 237 235
234 222 215 213 223 233 239 244 241 235 256 23 17 12 357 348 348 346 345 342 337 339 333 325 327 331 328 323 321 319 314 307 298 293 291 285 279 276 272 267 263 259 254 248 247 247 248 248 245 244 247 250 255 260 264 257 233 217 244 201 188 186 150 81 4 351 357 39 99 125 44 268 231 239 236 231 233 234 236 234 232 233 232 237 237 233 237 238
209 211 211 218 226 229 229 220 204 181 140 19 356 354 351 348 347 345 342 337 333 334 333 330 328 329 328 325 324 324 324 317 306 300 298 291 282 276 272 269 264 258 254 251 248 248 246 245 242 240 243 244 248 257 260 252 235 238 244 232 221 189 151 168 141 6 307 349 128 144 82 302 233 235 233 231 235 233 237 238 235 235 232 235 239 238 237 239
206 212 217 224 223 215 205 190 185 184 210 324 332 340 343 346 345 342 338 333 331 333 333 330 328 329 328 327 328 330 330 322 311 309 309 299 286 278 272 268 264 260 256 252 250 249 241 234 232 228 229 231 234 246 253 248 239 241 245 246 240 195 138 182 171 104 328 288 224 177 155 32 3 269 226 227 244 238 237 241 239 236 231 230 233 236 235 234
210 219 222 219 207 192 186 186 193 218 272 307 329 334 334 339 342 341 338 332 329 331 331 329 331 330 328 330 331 330 329 321 313 317 320 313 298 284 275 268 263 259 256 252 249 246 238 230 228 225 225 228 227 228 239 250 244 238 240 249 251 203 147 200 195 167 25 302 252 209 188 181 10 263 229 222 237 237 236 238 238 235 227 225 227 229 231 229
216 221 214 198 186 181 186 197 213 265 293 310 322 325 327 334 339 339 337 333 329 330 330 329 331 329 327 328 327 326 327 324 322 326 327 324 315 294 279 274 269 258 252 251 247 241 232 230 231 228 225 227 228 222 222 243 247 251 255 255 264 241 188 214 210 188 169 289 261 241 225 223 222 243 256 236 221 218 226 225 230 233 227 223 222 225 232 227
215 207 189 180 184 187 198 214 249 285 300 309 316 321 325 330 336 336 337 333 326 328 328 326 327 326 327 331 331 333 332 331 334 333 333 339 329 305 290 282 276 266 253 246 245 240 227 225 230 229 223 220 224 220 215 222 228 244 251 238 256 259 222 218 215 202 222 264 263 263 255 253 237 229 282 281 215 178 228 240 235 235 232 227 223 226 228 215
196 183 175 181 189 200 216 242 271 290 303 309 314 320 324 329 334 335 335 328 322 328 331 327 329 329 332 338 336 338 337 335 342 340 338 350 349 324 310 299 284 271 258 247 244 240 226 216 211 219 223 215 214 215 216 226 225 224 228 225 253 263 234 223 226 224 238 251 258 271 268 263 250 211 264 273 220 149 239 261 254 241 234 230 224 222 216 203
177 172 176 186 194 220 243 266 280 291 302 309 314 319 324 329 332 332 332 327 325 334 334 329 334 334 336 340 337 339 338 335 344 345 338 348 360 346 329 319 301 275 265 259 249 237 228 217 199 197 206 198 197 205 232 251 239 199 190 202 248 263 247 221 228 232 241 248 258 274 272 265 250 201 194 220 221 190 244 263 262 246 233 228 222 218 214 209
169 171 181 192 210 244 266 278 287 295 302 311 316 320 327 329 330 331 331 331 332 336 334 333 341 339 337 340 338 337 336 334 341 343 339 349 358 345 333 328 312 278 264 266 258 242 237 224 199 181 183 190 207 219 222 237 229 182 174 179 203 248 259 227 222 230 249 254 259 277 278 275 252 200 188 189 194 172 327 285 265 247 229 223 219 215 215 215
168 174 187 203 230 265 283 289 297 301 306 314 317 321 327 327 330 333 332 334 334 335 336 338 343 341 337 338 336 336 336 333 335 340 343 347 349 339 335 335 326 295 262 260 263 252 247 236 211 190 184 193 205 215 215 223 222 196 189 189 195 230 244 230 227 235 247 252 261 275 274 271 255 201 194 194 137 94 32 326 268 243 225 219 219 216 214 216
172 180 194 219 249 272 286 295 301 304 311 316 316 324 328 326 332 333 332 336 334 334 338 338 341 340 335 335 333 332 334 329 330 339 341 336 335 332 333 334 330 319 283 263 258 243 233 234 222 207 199 196 199 211 215 222 226 211 204 205 203 221 231 229 236 242 242 243 248 251 253 259 257 215 213 213 168 131 117 3 346 318 223 220 226 220 216 219
175 185 209 239 263 274 284 294 299 306 313 314 316 325 325 324 332 332 331 336 333 333 337 337 339 336 331 330 326 325 329 327 327 333 331 324 323 323 326 328 324 323 308 271 253 241 224 212 211 208 207 202 202 214 215 218 223 212 207 207 205 217 226 228 236 240 244 244 227 229 238 248 251 229 213 209 190 179 191 274 313 235 147 208 235 223 217 222
177 196 229 253 266 273 283 293 300 308 311 313 316 320 322 326 331 330 331 334 331 331 335 336 336 331 326 323 319 320 327 326 320 317 312 309 310 313 317 318 315 315 311 283 250 244 238 219 209 208 211 210 207 211 207 209 221 218 213 210 208 217 223 228 238 241 246 245 216 229 240 241 241 224 203 200 204 206 211 237 232 198 175 189 223 221 214 216
186 212 243 260 270 278 286 292 302 308 309 314 314 316 325 330 327 327 332 332 329 330 335 336 333 328 323 321 320 324 325 314 303 296 294 295 296 300 305 308 307 307 307 301 263 239 232 215 203 198 206 217 216 215 206 200 207 211 209 211 213 218 226 233 243 246 245 235 217 228 245 246 239 217 199 202 208 207 207 215 206 190 194 197 196 208 209 209
198 226 251 264 274 281 285 292 302 306 308 313 313 318 328 328 324 327 331 329 326 329 335 335 331 327 324 325 329 331 324 306 295 286 281 281 280 281 288 293 293 294 295 293 275 244 219 199 195 191 193 210 216 219 211 197 197 202 205 215 217 216 226 234 237 241 241 237 228 219 222 241 234 209 204 205 205 205 208 205 181 176 203 215 215 210 206 205
214 241 259 269 277 281 284 291 298 303 309 312 312 317 320 319 324 327 326 326 327 330 334 334 331 328 327 330 332 331 326 311 297 284 272 271 272 272 276 273 268 273 277 276 271 255 228 209 204 198 193 202 207 211 213 206 205 213 216 224 223 214 225 239 237 244 245 241 242 235 230 237 216 205 211 209 206 210 207 169 138 180 212 226 241 245 231 218
228 250 263 270 276 280 284 289 296 305 312 311 310 310 310 317 327 325 321 326 331 330 333 335 331 330 329 330 331 329 328 319 302 287 268 265 267 268 270 271 269 268 269 273 271 261 243 221 214 209 198 205 210 205 205 205 202 210 218 217 216 215 222 231 232 244 252 244 240 250 248 234 209 206 210 209 208 206 200 188 182 215 246 257 260 261 254 244
236 253 264 271 276 279 282 289 298 307 310 308 308 307 311 320 325 321 320 327 332 330 333 336 332 331 330 327 329 330 327 318 303 291 275 268 268 269 268 269 275 277 273 275 274 265 256 234 221 218 205 206 215 206 198 196 192 195 201 199 207 216 215 218 224 232 240 237 232 247 249 236 224 218 210 208 207 201 201 207 202 344 307 275 262 262 259 252
243 255 261 266 270 274 281 292 301 306 305 304 306 309 315 320 318 320 323 327 332 330 332 337 333 332 332 328 329 329 322 316 304 291 276 270 272 277 274 265 269 279 280 277 274 270 268 246 218 221 215 204 211 209 199 195 192 190 188 189 207 218 211 213 220 223 229 232 231 243 249 241 235 227 212 204 202 203 205 174 68 351 306 264 244 248 253 248
249 258 262 266 272 279 287 296 301 301 298 300 309 313 314 314 314 323 328 328 333 332 330 336 334 331 334 334 330 326 323 321 308 295 284 276 277 281 280 268 262 269 275 273 269 270 271 252 211 216 221 208 204 206 199 193 189 185 182 187 204 213 209 213 217 215 221 226 225 233 246 241 229 216 207 203 193 181 168 136 61 309 300 268 233 219 228 230
251 256 262 270 278 284 288 294 297 297 295 301 312 311 308 309 313 326 332 329 332 332 329 335 335 331 335 338 332 326 325 323 311 302 297 291 286 282 278 272 263 261 261 262 262 261 260 248 219 212 220 215 206 201 198 196 189 185 188 196 202 202 200 216 224 212 208 215 222 229 237 239 229 211 198 200 195 177 163 182 232 307 312 277 250 230 215 208
251 255 260 269 277 282 287 295 300 300 300 304 308 306 308 312 316 327 333 328 330 331 328 333 337 333 336 339 333 327 323 322 321 314 307 302 295 286 279 275 273 267 259 258 261 258 250 239 222 210 214 216 207 196 195 197 191 187 193 202 203 198 195 211 228 218 203 209 218 224 230 240 240 223 200 195 205 206 211 225 246 307 300 263 241 234 218 199
254 262 267 271 276 282 289 296 298 298 299 300 302 304 312 317 318 325 332 328 329 328 326 334 340 334 333 336 331 325 323 325 326 321 313 308 299 291 287 283 281 278 269 265 265 262 254 240 223 211 210 213 211 201 193 191 191 191 192 197 202 203 200 198 208 218 209 206 211 218 225 230 232 224 211 212 225 228 236 248 260 290 288 262 235 229 218 198
251 258 264 270 277 283 289 293 292 294 296 299 304 309 316 323 320 321 328 330 329 325 326 337 341 332 331 334 329 325 326 325 322 322 321 316 307 299 296 292 285 280 272 266 262 258 253 244 230 215 207 208 219 219 201 188 188 191 193 197 199 203 202 191 196 214 213 208 215 218 214 208 204 210 212 220 238 247 256 265 267 281 286 264 235 229 230 219
249 255 262 271 278 280 284 287 289 293 297 301 307 310 316 325 320 318 325 331 330 324 327 337 338 331 332 332 328 328 328 324 321 322 322 316 308 301 298 295 287 282 274 265 261 253 246 243 235 222 211 205 212 222 212 194 189 192 194 198 197 197 199 197 200 209 213 219 221 210 198 192 193 206 211 214 232 246 254 261 270 284 288 263 241 240 247 241
251 258 263 269 273 278 283 289 292 296 299 302 307 310 316 321 320 321 325 330 332 327 327 335 335 332 331 330 331 331 326 322 320 317 313 309 302 294 293 293 290 289 284 271 266 263 254 246 235 224 218 209 205 216 217 202 194 197 198 196 195 193 195 200 205 209 215 223 220 188 168 159 227 265 259 251 254 258 256 261 271 280 275 256 244 245 249 249
252 260 267 272 276 282 288 293 296 299 301 303 308 312 317 317 319 325 325 327 334 330 327 333 333 330 331 332 335 333 321 317 316 312 310 309 303 292 286 287 289 291 290 283 276 271 264 249 233 223 218 210 203 210 219 210 199 199 200 195 194 194 196 198 203 210 216 223 227 201 168 163 261 263 261 264 265 263 262 264 268 269 258 244 237 240 248 258
254 260 267 271 275 281 288 294 299 300 301 305 308 313 317 315 319 328 326 325 333 330 328 334 332 328 332 336 334 328 320 317 315 311 309 307 299 291 285 283 286 288 288 287 279 267 256 240 229 223 216 212 206 207 216 214 202 198 200 197 194 197 203 202 204 211 214 219 227 210 178 193 223 228 234 265 278 273 267 266 269 271 260 243 236 241 251 264
260 263 269 274 277 281 287 292 296 297 298 303 307 313 318 315 317 327 327 324 329 329 329 333 330 328 332 335 331 327 323 320 315 310 307 303 296 289 285 282 283 286 286 281 275 266 254 239 232 226 220 219 212 208 214 216 204 197 199 200 196 198 208 210 211 215 212 210 216 204 189 202 208 202 208 258 280 281 269 262 270 280 274 260 255 259 267 275
266 270 273 278 282 284 286 289 292 294 295 300 305 310 315 315 315 322 326 324 326 329 330 332 329 328 332 332 330 328 324 320 315 310 305 300 294 288 284 280 279 285 287 277 271 266 257 247 237 229 225 226 219 211 214 217 206 197 198 202 197 197 209 213 215 218 213 207 209 210 213 216 207 197 205 224 250 264 248 241 254 263 263 262 264 268 271 271
268 271 273 277 281 284 286 290 294 295 295 299 304 308 314 316 316 319 324 325 327 328 330 331 330 330 332 331 329 328 325 321 318 315 309 302 295 288 285 281 277 281 283 276 268 261 256 249 237 229 226 228 223 213 213 217 212 199 198 203 198 196 207 213 216 221 218 211 209 212 218 218 204 198 209 218 232 238 226 237 261 264 257 251 252 259 262 260
266 268 271 276 280 284 287 291 295 296 298 302 306 310 316 318 317 319 323 327 328 329 330 331 332 333 332 331 331 330 325 321 319 317 315 311 304 294 288 284 278 276 275 271 265 257 253 248 234 224 223 228 225 214 211 215 212 200 197 202 199 196 203 211 215 220 219 216 214 212 213 209 198 201 214 221 226 220 220 262 278 273 264 245 235 249 259 261
Height
5929 5930 5930 5930 5931 5931 5931 5931 5932 5932 5932 5932 5932 5932 5932 5932 5932 5932 5932 5931 5931 5931 5930 5930 5929 5928 5928 5927 5926 5925 5925 5924 5924 5923 5922 5921 5920 5919 5917 5916 5916 5914 5914 5913 5912 5912 5912 5912 5912 5912 5911 5911 5911 5911 5912 5912 5913 5913 5914 5915 5915 5916 5916 5917 5918 5918 5918 5918 5918 5918 5918 5919 5920 5921 5921 5922 5922 5922 5922 5922 5922 5923 5923 5924 5923 5923 5923 5923
5929 5930 5930 5930 5931 5931 5931 5932 5932 5932 5932 5932 5932 5932 5932 5932 5932 5932 5932 5931 5931 5931 5930 5930 5929 5929 5928 5927 5926 5925 5925 5924 5924 5923 5922 5921 5920 5920 5918 5917 5916 5915 5914 5914 5913 5913 5913 5913 5912 5912 5912 5911 5911 5911 5911 5912 5912 5913 5914 5914 5915 5916 5917 5917 5918 5918 5918 5918 5917 5917 5917 5919 5920 5921 5921 5922 5923 5923 5923 5923 5923 5924 5924 5924 5924 5924 5924 5924
5929 5930 5930 5930 5931 5931 5931 5932 5932 5932 5932 5932 5932 5932 5932 5932 5932 5932 5931 5931 5931 5931 5930 5930 5929 5929 5928 5927 5926 5925 5925 5924 5924 5923 5922 5922 5921 5920 5918 5917 5916 5916 5915 5915 5914 5914 5913 5913 5913 5912 5912 5912 5912 5911 5911 5912 5912 5912 5913 5914 5914 5915 5916 5918 5918 5918 5918 5917 5917 5917 5917 5918 5919 5920 5921 5922 5923 5923 5924 5923 5923 5924 5924 5924 5924 5924 5925 5925
5929 5930 5930 5930 5931 5931 5931 5932 5932 5932 5932 5932 5932 5932 5932 5932 5932 5931 5931 5931 5931 5930 5930 5930 5929 5929 5928 5927 5926 5925 5924 5924 5923 5923 5922 5922 5921 5920 5919 5918 5917 5916 5916 5915 5915 5914 5913 5913 5913 5912 5912 5913 5912 5912 5912 5911 5912 5912 5913 5914 5914 5915 5916 5917 5918 5918 5918 5917 5917 5917 5917 5918 5918 5919 5920 5921 5922 5922 5923 5923 5923 5923 5924 5924 5924 5924 5924 5925
5929 5930 5930 5930 5931 5931 5931 5931 5931 5931 5931 5932 5932 5932 5932 5931 5931 5931 5931 5930 5930 5930 5929 5929 5929 5928 5928 5927 5926 5925 5924 5923 5923 5922 5922 5921 5921 5920 5919 5918 5917 5916 5916 5916 5915 5914 5914 5914 5914 5913 5913 5913 5913 5913 5913 5912 5912 5912 5913 5913 5913 5914 5916 5917 5917 5917 5917 5917 5918 5917 5917 5918 5918 5919 5920 5921 5921 5922 5923 5923 5923 5923 5924 5924 5924 5924 5924 5924
5929 5930 5930 5930 5931 5931 5931 5931 5931 5931 5931 5931 5931 5931 5931 5931 5931 5930 5930 5930 5929 5929 5929 5928 5928 5928 5927 5926 5926 5924 5923 5923 5922 5922 5921 5921 5921 5920 5920 5919 5918 5916 5915 5915 5915 5915 5914 5914 5915 5914 5913 5913 5913 5914 5914 5913 5912 5912 5912 5913 5913 5914 5915 5916 5915 5916 5916 5917 5917 5916 5916 5917 5918 5919 5920 5920 5921 5922 5922 5922 5923 5923 5924 5924 5924 5924 5924 5924
5929 5929 5930 5930 5930 5930 5930 5931 5931 5931 5931 5931 5931 5931 5930 5930 5930 5929 5929 5929 5928 5928 5928 5928 5927 5927 5926 5926 5925 5924 5923 5922 5922 5921 5921 5920 5920 5920 5919 5919 5918 5917 5916 5915 5915 5915 5914 5915 5915 5914 5913 5913 5913 5914 5914 5913 5913 5912 5912 5913 5913 5913 5914 5914 5914 5915 5916 5916 5916 5916 5916 5916 5917 5919 5919 5920 5921 5922 5921 5921 5922 5923 5924 5924 5924 5924 5924 5924
5929 5929 5930 5930 5930 5930 5930 5930 5930 5930 5930 5930 5930 5930 5930 5929 5929 5928 5928 5927 5927 5927 5927 5927 5926 5926 5926 5925 5924 5923 5922 5922 5921 5920 5920 5920 5919 5919 5919 5918 5918 5918 5917 5916 5916 5915 5915 5915 5916 5914 5913 5913 5913 5914 5913 5913 5912 5912 5912 5912 5912 5913 5913 5913 5913 5915 5915 5916 5916 5916 5916 5915 5917 5918 5919 5920 5921 5922 5922 5922 5922 5922 5924 5924 5924 5924 5924 5924
5929 5929 5929 5929 5930 5930 5930 5930 5930 5930 5930 5929 5929 5929 5928 5928 5927 5927 5926 5926 5926 5926 5926 5925 5925 5925 5924 5923 5922 5922 5921 5921 5920 5919 5919 5919 5919 5918 5918 5918 5917 5917 5917 5916 5916 5916 5915 5915 5915 5914 5913 5914 5914 5913 5913 5913 5913 5912 5912 5912 5912 5912 5912 5912 5913 5914 5914 5915 5915 5915 5915 5915 5916 5917 5918 5919 5921 5922 5922 5922 5922 5922 5923 5924 5924 5924 5924 5924
5928 5929 5929 5929 5929 5929 5929 5929 5929 5929 5928 5928 5928 5928 5927 5927 5926 5926 5925 5925 5924 5924 5924 5924 5924 5923 5923 5922 5921 5920 5920 5920 5918 5918 5918 5918 5918 5917 5917 5917 5916 5916 5916 5916 5915 5915 5915 5914 5915 5914 5913 5914 5913 5913 5913 5913 5913 5912 5912 5912 5912 5912 5912 5912 5913 5913 5913 5914 5914 5914 5914 5914 5915 5916 5918 5919 5920 5921 5922 5922 5922 5922 5923 5923 5923 5923 5924 5924
5928 5928 5928 5928 5928 5928 5928 5928 5928 5927 5927 5927 5927 5926 5926 5925 5925 5924 5924 5924 5923 5923 5923 5923 5922 5922 5921 5920 5919 5919 5919 5919 5917 5916 5916 5917 5917 5916 5916 5916 5915 5915 5915 5915 5914 5915 5914 5914 5915 5914 5913 5913 5913 5913 5913 5913 5913 5912 5912 5912 5911 5911 5911 5911 5912 5912 5913 5913 5913 5913 5913 5913 5913 5915 5917 5918 5919 5920 5921 5922 5922 5923 5923 5923 5923 5923 5923 5924
5927 5927 5927 5927 5927 5927 5927 5927 5926 5926 5926 5926 5925 5925 5924 5924 5923 5923 5923 5922 5922 5921 5921 5921 5921 5920 5919 5918 5917 5918 5918 5917 5916 5916 5915 5915 5916 5916 5915 5914 5914 5914 5913 5913 5913 5913 5913 5913 5913 5913 5913 5913 5913 5914 5913 5913 5913 5912 5912 5912 5911 5911 5911 5911 5911 5911 5912 5912 5913 5913 5913 5913 5913 5913 5915 5917 5917 5918 5919 5920 5921 5922 5922 5922 5923 5923 5922 5923
5926 5926 5926 5926 5926 5926 5925 5925 5925 5925 5925 5924 5924 5923 5923 5922 5922 5921 5921 5921 5920 5920 5920 5920 5919 5919 5918 5916 5917 5916 5916 5916 5916 5915 5915 5914 5914 5914 5914 5913 5913 5913 5912 5912 5912 5912 5912 5912 5912 5912 5913 5912 5913 5913 5912 5912 5912 5912 5912 5912 5911 5911 5911 5911 5910 5910 5911 5911 5912 5912 5913 5913 5913 5912 5914 5915 5915 5915 5917 5918 5919 5920 5920 5921 5922 5923 5923 5922
5925 5925 5925 5925 5924 5924 5924 5924 5924 5923 5923 5923 5922 5922 5921 5921 5921 5921 5920 5920 5920 5919 5919 5919 5918 5918 5916 5915 5916 5915 5914 5914 5914 5914 5914 5913 5912 5912 5912 5912 5911 5912 5911 5911 5911 5911 5911 5912 5912 5911 5912 5912 5912 5912 5912 5912 5912 5912 5911 5911 5911 5911 5911 5911 5910 5910 5910 5911 5911 5912 5912 5913 5912 5912 5912 5913 5914 5914 5914 5915 5916 5917 5918 5920 5921 5922 5923 5923
5924 5924 5923 5923 5923 5922 5922 5922 5922 5922 5922 5921 5921 5921 5921 5920 5920 5920 5920 5919 5919 5919 5919 5918 5917 5916 5915 5914 5915 5914 5913 5912 5912 5912 5911 5911 5911 5910 5910 5910 5910 5910 5910 5910 5909 5910 5910 5910 5910 5910 5911 5912 5912 5912 5912 5912 5912 5911 5910 5910 5910 5910 5910 5910 5910 5910 5910 5910 5911 5911 5912 5912 5912 5911 5911 5911 5913 5914 5914 5914 5914 5915 5916 5918 5919 5920 5922 5922
5922 5922 5922 5921 5921 5921 5921 5921 5921 5921 5921 5920 5920 5920 5920 5920 5919 5919 5919 5918 5918 5918 5918 5917 5916 5915 5914 5914 5914 5913 5912 5911 5910 5910 5909 5908 5908 5908 5908 5908 5908 5908 5908 5908 5908 5908 5909 5909 5909 5909 5910 5911 5911 5911 5911 5911 5911 5910 5910 5909 5909 5910 5910 5910 5910 5910 5910 5910 5910 5911 5911 5911 5912 5911 5911 5911 5912 5912 5913 5914 5914 5915 5915 5916 5917 5918 5919 5920
5921 5920 5920 5920 5920 5920 5920 5920 5920 5920 5920 5920 5920 5920 5919 5919 5919 5918 5918 5918 5917 5917 5917 5915 5915 5914 5914 5913 5913 5912 5911 5909 5908 5907 5907 5906 5906 5906 5906 5907 5906 5906 5906 5906 5907 5907 5907 5907 5908 5908 5909 5910 5910 5910 5910 5910 5910 5909 5909 5909 5909 5909 5910 5910 5910 5910 5910 5910 5910 5910 5911 5911 5911 5911 5911 5911 5911 5911 5912 5913 5914 5915 5915 5915 5915 5916 5917 5918
5919 5919 5918 5918 5918 5919 5919 5919 5919 5919 5919 5919 5919 5919 5919 5919 5918 5918 5917 5917 5917 5916 5915 5914 5913 5913 5913 5912 5911 5910 5908 5907 5906 5905 5905 5905 5905 5904 5904 5905 5904 5904 5905 5905 5905 5905 5905 5906 5906 5907 5907 5908 5908 5908 5908 5908 5908 5908 5908 5909 5909 5909 5910 5909 5909 5910 5910 5909 5909 5909 5909 5910 5910 5910 5910 5911 5911 5911 5911 5912 5912 5913 5914 5915 5915 5915 5916 5917
5917 5917 5917 5917 5918 5918 5918 5918 5918 5919 5919 5919 5919 5919 5918 5918 5918 5917 5917 5916 5916 5915 5914 5913 5912 5911 5912 5911 5909 5908 5907 5905 5904 5903 5903 5902 5901 5902 5902 5902 5902 5902 5903 5903 5903 5902 5903 5904 5905 5905 5905 5906 5907 5907 5906 5906 5907 5908 5908 5909 5909 5909 5910 5909 5909 5909 5909 5909 5908 5908 5908 5909 5909 5909 5910 5910 5910 5910 5911 5911 5911 5912 5913 5914 5915 5915 5915 5916
5916 5916 5916 5917 5917 5917 5917 5918 5918 5918 5918 5918 5918 5918 5918 5918 5917 5917 5916 5915 5915 5914 5913 5911 5910 5910 5910 5908 5907 5907 5905 5904 5902 5901 5901 5900 5899 5899 5899 5899 5899 5900 5901 5900 5900 5900 5900 5902 5904 5903 5903 5904 5905 5905 5905 5905 5906 5907 5907 5908 5908 5910 5909 5908 5908 5909 5908 5908 5908 5908 5908 5908 5908 5908 5908 5908 5909 5909 5910 5910 5910 5911 5912 5913 5914 5915 5915 5916
5915 5915 5916 5916 5916 5917 5917 5917 5917 5917 5918 5918 5918 5918 5918 5917 5917 5916 5915 5915 5913 5913 5912 5910 5909 5908 5908 5906 5905 5905 5903 5902 5899 5898 5899 5899 5897 5896 5895 5895 5896 5897 5898 5898 5897 5897 5899 5901 5902 5902 5901 5902 5903 5903 5903 5904 5904 5905 5906 5907 5908 5909 5908 5908 5908 5909 5908 5908 5908 5908 5907 5907 5907 5907 5907 5907 5907 5908 5909 5910 5910 5910 5911 5912 5913 5913 5914 5915
5914 5914 5915 5915 5916 5916 5916 5917 5917 5917 5917 5917 5917 5917 5917 5917 5916 5915 5914 5914 5913 5912 5911 5909 5907 5906 5905 5904 5903 5902 5901 5899 5896 5895 5896 5896 5894 5893 5892 5892 5892 5894 5894 5895 5895 5895 5897 5899 5899 5899 5899 5900 5901 5901 5901 5902 5903 5904 5905 5906 5907 5907 5907 5907 5908 5908 5908 5907 5907 5907 5907 5906 5906 5906 5906 5906 5906 5907 5908 5909 5910 5910 5911 5911 5912 5912 5913 5914
5913 5914 5914 5915 5915 5916 5916 5916 5916 5917 5917 5917 5917 5917 5916 5916 5916 5915 5914 5912 5911 5911 5909 5908 5906 5905 5903 5901 5900 5899 5898 5896 5892 5891 5893 5893 5892 5890 5889 5888 5889 5890 5891 5892 5892 5893 5896 5897 5895 5896 5897 5897 5898 5899 5899 5900 5901 5903 5904 5905 5906 5906 5906 5906 5907 5907 5907 5907 5906 5907 5907 5906 5906 5905 5905 5905 5905 5906 5906 5907 5909 5909 5910 5910 5910 5911 5912 5913
5913 5913 5914 5914 5915 5915 5915 5916 5916 5916 5916 5916 5916 5916 5915 5915 5915 5914 5913 5911 5910 5909 5908 5907 5905 5903 5901 5899 5898 5897 5896 5893 5890 5889 5889 5889 5889 5888 5886 5885 5886 5887 5887 5888 5889 5890 5893 5893 5892 5893 5894 5895 5896 5897 5897 5898 5900 5901 5902 5904 5904 5904 5905 5905 5906 5906 5906 5906 5906 5906 5906 5906 5905 5905 5904 5904 5903 5904 5905 5906 5907 5908 5908 5908 5909 5910 5911 5912
5912 5913 5913 5914 5914 5914 5915 5915 5915 5915 5915 5915 5915 5915 5914 5914 5914 5913 5912 5910 5908 5907 5906 5905 5904 5902 5901 5899 5897 5896 5894 5891 5888 5887 5887 5886 5885 5884 5882 5882 5883 5884 5884 5884 5885 5887 5890 5890 5890 5891 5893 5894 5895 5895 5896 5897 5898 5899 5901 5902 5902 5903 5904 5904 5905 5905 5905 5904 5904 5904 5904 5904 5905 5904 5903 5903 5903 5903 5904 5904 5905 5905 5906 5907 5908 5909 5909 5910
5911 5912 5912 5913 5913 5914 5914 5914 5914 5914 5914 5914 5914 5914 5913 5913 5912 5911 5910 5909 5907 5906 5905 5904 5903 5901 5900 5898 5895 5893 5890 5888 5886 5885 5884 5883 5882 5880 5879 5879 5880 5880 5881 5881 5881 5884 5887 5887 5888 5889 5890 5891 5892 5894 5895 5896 5897 5898 5899 5900 5900 5901 5903 5903 5903 5903 5903 5903 5902 5902 5902 5903 5903 5903 5903 5903 5903 5903 5902 5902 5903 5904 5904 5905 5906 5907 5908 5908
5911 5911 5912 5912 5913 5913 5913 5914 5914 5914 5913 5913 5913 5912 5912 5911 5911 5910 5909 5907 5906 5906 5904 5902 5901 5899 5897 5895 5892 5890 5887 5885 5884 5882 5881 5882 5881 5878 5876 5877 5878 5877 5877 5878 5879 5882 5884 5883 5885 5887 5888 5889 5890 5893 5894 5895 5896 5897 5899 5899 5899 5900 5901 5901 5901 5902 5901 5901 5901 5900 5900 5901 5902 5903 5902 5903 5903 5903 5902 5902 5902 5902 5903 5904 5905 5906 5906 5908
5910 5911 5911 5912 5912 5912 5913 5913 5913 5913 5913 5912 5912 5911 5910 5910 5909 5908 5907 5906 5904 5904 5903 5900 5899 5896 5894 5892 5889 5887 5885 5883 5882 5881 5879 5879 5879 5878 5876 5875 5876 5876 5875 5875 5878 5880 5880 5880 5882 5884 5886 5888 5889 5892 5893 5894 5895 5897 5898 5899 5899 5899 5900 5901 5900 5900 5900 5900 5900 5899 5899 5899 5901 5902 5901 5901 5902 5903 5903 5902 5901 5901 5902 5903 5903 5904 5905 5906
5909 5910 5910 5911 5911 5912 5912 5912 5912 5912 5912 5911 5910 5910 5909 5908 5908 5907 5905 5903 5902 5901 5900 5898 5897 5894 5891 5890 5887 5885 5883 5880 5880 5880 5878 5877 5877 5877 5876 5874 5874 5874 5873 5873 5876 5877 5878 5879 5880 5881 5883 5885 5887 5890 5891 5892 5893 5895 5896 5898 5898 5898 5899 5900 5900 5899 5899 5898 5899 5899 5898 5898 5899 5900 5900 5900 5901 5902 5902 5902 5901 5901 5901 5902 5903 5903 5904 5905
5909 5909 5910 5910 5911 5911 5911 5911 5911 5911 5910 5910 5909 5909 5908 5907 5906 5905 5903 5902 5900 5899 5897 5895 5894 5891 5889 5887 5885 5884 5881 5878 5877 5877 5875 5875 5876 5875 5874 5873 5872 5872 5872 5872 5874 5876 5877 5878 5878 5878 5880 5882 5884 5887 5889 5890 5891 5893 5895 5896 5897 5896 5897 5898 5899 5898 5897 5897 5898 5898 5898 5897 5898 5899 5900 5900 5900 5901 5901 5902 5901 5901 5901 5902 5902 5902 5903 5904
5908 5909 5909 5910 5910 5910 5910 5910 5910 5909 5909 5909 5908 5908 5906 5905 5905 5903 5901 5900 5898 5897 5895 5893 5891 5889 5887 5885 5883 5881 5880 5878 5876 5875 5874 5873 5874 5874 5873 5872 5871 5870 5870 5871 5872 5873 5874 5876 5877 5877 5878 5880 5882 5884 5887 5889 5890 5892 5893 5894 5895 5895 5895 5896 5897 5897 5896 5896 5898 5898 5898 5897 5897 5899 5899 5899 5899 5900 5900 5901 5901 5900 5900 5901 5901 5902 5902 5903
5907 5908 5908 5909 5909 5909 5909 5909 5909 5908 5908 5908 5907 5906 5905 5904 5904 5902 5900 5899 5897 5895 5894 5892 5890 5888 5885 5883 5881 5879 5879 5877 5874 5873 5872 5872 5873 5873 5872 5871 5870 5869 5869 5869 5870 5870 5871 5873 5875 5876 5877 5878 5880 5882 5884 5887 5888 5889 5890 5891 5892 5893 5893 5894 5895 5895 5895 5896 5897 5897 5897 5896 5896 5898 5898 5899 5899 5898 5899 5900 5900 5900 5899 5900 5900 5901 5901 5902
5907 5907 5908 5908 5908 5908 5908 5908 5908 5908 5907 5907 5906 5905 5904 5903 5902 5900 5899 5897 5895 5894 5892 5891 5889 5887 5884 5881 5879 5878 5877 5875 5873 5872 5872 5872 5871 5871 5871 5869 5868 5868 5868 5868 5868 5868 5870 5871 5873 5875 5876 5877 5878 5880 5882 5884 5885 5887 5889 5889 5890 5891 5892 5893 5893 5894 5894 5895 5895 5895 5895 5895 5896 5897 5897 5898 5897 5897 5898 5898 5899 5899 5899 5899 5899 5900 5900 5901
5906 5906 5907 5907 5907 5907 5907 5907 5907 5906 5906 5905 5904 5904 5903 5902 5901 5899 5898 5896 5894 5892 5891 5889 5887 5885 5882 5880 5879 5877 5875 5873 5873 5872 5871 5870 5870 5869 5869 5868 5867 5866 5866 5866 5866 5867 5869 5870 5871 5872 5874 5876 5877 5877 5878 5880 5882 5884 5886 5887 5888 5889 5890 5891 5892 5893 5893 5893 5893 5893 5893 5893 5894 5895 5895 5895 5896 5897 5897 5897 5898 5899 5899 5899 5899 5899 5900 5900
5905 5905 5906 5906 5906 5906 5906 5906 5906 5905 5904 5904 5903 5902 5902 5901 5899 5898 5896 5895 5892 5890 5889 5888 5885 5882 5880 5878 5877 5876 5874 5873 5872 5872 5870 5869 5869 5868 5867 5867 5866 5865 5864 5865 5865 5865 5866 5867 5867 5868 5870 5872 5874 5874 5875 5877 5879 5881 5883 5884 5886 5887 5888 5889 5890 5891 5892 5892 5891 5892 5892 5892 5892 5893 5893 5894 5895 5895 5895 5896 5897 5898 5898 5898 5899 5899 5899 5900
5904 5904 5905 5905 5905 5905 5905 5904 5904 5904 5903 5902 5902 5901 5901 5900 5898 5896 5895 5894 5891 5889 5888 5886 5883 5881 5878 5876 5875 5874 5873 5873 5872 5871 5870 5869 5868 5868 5867 5866 5865 5863 5862 5862 5862 5863 5864 5864 5865 5866 5868 5870 5871 5872 5873 5875 5876 5878 5880 5883 5885 5886 5887 5887 5888 5889 5890 5890 5890 5891 5890 5890 5890 5891 5891 5892 5893 5893 5895 5896 5896 5897 5897 5898 5898 5899 5899 5900
5903 5903 5904 5904 5904 5903 5903 5903 5903 5902 5902 5900 5900 5900 5899 5898 5897 5895 5893 5891 5890 5887 5886 5884 5882 5879 5877 5874 5873 5872 5872 5871 5870 5869 5868 5867 5867 5867 5865 5864 5863 5862 5861 5860 5860 5860 5861 5864 5864 5865 5866 5868 5868 5869 5870 5872 5875 5876 5879 5882 5884 5884 5885 5885 5886 5888 5888 5889 5889 5889 5889 5888 5888 5889 5889 5891 5891 5892 5894 5895 5895 5896 5897 5898 5898 5898 5899 5899
5902 5902 5902 5902 5902 5902 5902 5902 5901 5901 5900 5899 5898 5897 5897 5896 5896 5894 5891 5889 5888 5886 5884 5883 5880 5878 5876 5873 5871 5870 5869 5869 5867 5865 5864 5863 5864 5864 5863 5862 5860 5860 5860 5859 5859 5858 5859 5862 5864 5863 5864 5865 5865 5866 5867 5869 5871 5872 5875 5878 5880 5881 5883 5883 5884 5885 5886 5887 5888 5887 5887 5887 5887 5887 5888 5889 5890 5891 5893 5894 5895 5897 5897 5897 5898 5898 5898 5898
5901 5901 5901 5901 5901 5901 5900 5900 5900 5899 5899 5898 5897 5895 5894 5894 5893 5892 5890 5888 5887 5884 5882 5881 5879 5877 5875 5872 5869 5868 5867 5866 5864 5863 5861 5860 5860 5861 5860 5860 5859 5858 5858 5858 5858 5858 5858 5860 5861 5861 5862 5863 5863 5863 5864 5866 5869 5870 5872 5875 5877 5878 5880 5880 5881 5883 5884 5885 5886 5885 5885 5886 5885 5886 5887 5888 5889 5890 5892 5894 5895 5896 5896 5896 5896 5897 5898 5897
5899 5900 5900 5900 5899 5899 5899 5898 5898 5898 5898 5897 5896 5894 5893 5892 5891 5890 5888 5886 5884 5882 5880 5879 5877 5874 5873 5871 5868 5866 5865 5864 5862 5860 5859 5858 5858 5858 5858 5858 5857 5856 5856 5856 5856 5857 5857 5857 5859 5859 5859 5861 5861 5861 5862 5865 5867 5869 5871 5873 5873 5875 5876 5877 5878 5880 5882 5884 5884 5884 5884 5884 5884 5885 5887 5887 5888 5890 5892 5894 5895 5895 5895 5895 5895 5896 5897 5897
5898 5898 5898 5898 5898 5897 5897 5897 5897 5897 5896 5895 5895 5893 5892 5890 5889 5888 5886 5883 5882 5880 5877 5876 5875 5872 5870 5869 5866 5863 5862 5861 5860 5857 5856 5856 5856 5855 5855 5854 5854 5854 5853 5852 5852 5853 5854 5855 5857 5857 5857 5858 5858 5859 5861 5863 5864 5866 5868 5869 5870 5871 5872 5873 5875 5877 5879 5881 5882 5882 5882 5882 5883 5885 5886 5886 5888 5889 5891 5893 5894 5894 5895 5895 5894 5895 5895 5896
5897 5897 5897 5897 5896 5896 5896 5896 5896 5895 5893 5893 5893 5892 5891 5889 5886 5886 5884 5881 5880 5878 5875 5874 5872 5869 5868 5866 5863 5861 5858 5857 5857 5856 5854 5854 5853 5852 5852 5851 5851 5851 5850 5849 5849 5850 5850 5851 5853 5854 5855 5855 5856 5857 5858 5860 5862 5864 5865 5867 5867 5867 5868 5869 5872 5874 5875 5878 5879 5880 5880 5881 5882 5884 5885 5885 5886 5888 5890 5892 5893 5893 5894 5894 5893 5893 5894 5894
5895 5895 5895 5895 5895 5894 5895 5895 5894 5893 5891 5891 5891 5891 5890 5887 5884 5884 5883 5880 5878 5876 5873 5872 5871 5867 5865 5864 5861 5858 5856 5854 5854 5853 5852 5851 5850 5850 5849 5849 5848 5847 5847 5847 5847 5848 5848 5848 5849 5851 5852 5853 5854 5854 5855 5856 5858 5861 5862 5864 5864 5864 5865 5866 5869 5871 5873 5875 5877 5878 5879 5880 5881 5882 5883 5884 5885 5887 5889 5890 5891 5892 5892 5892 5892 5892 5892 5892
5894 5894 5894 5894 5893 5893 5893 5893 5892 5891 5890 5888 5888 5888 5888 5886 5883 5881 5881 5879 5876 5873 5871 5871 5869 5866 5863 5862 5859 5856 5854 5852 5850 5850 5849 5848 5847 5847 5846 5846 5845 5845 5844 5843 5844 5844 5845 5845 5846 5848 5850 5852 5853 5853 5853 5853 5855 5858 5859 5860 5860 5861 5863 5866 5868 5870 5871 5872 5874 5875 5877 5879 5880 5881 5882 5884 5885 5886 5888 5889 5890 5890 5890 5890 5890 5890 5890 5891
5892 5893 5892 5892 5892 5891 5891 5891 5890 5889 5888 5887 5886 5884 5885 5884 5882 5880 5879 5878 5875 5871 5869 5869 5867 5864 5861 5859 5857 5854 5851 5850 5848 5847 5847 5846 5845 5844 5843 5843 5842 5842 5841 5840 5840 5841 5841 5842 5843 5845 5847 5849 5850 5850 5851 5851 5853 5854 5854 5856 5858 5860 5863 5865 5867 5867 5868 5869 5871 5874 5876 5878 5879 5881 5882 5884 5886 5887 5887 5888 5888 5889 5889 5889 5888 5889 5889 5890
5891 5891 5891 5891 5890 5889 5889 5889 5888 5887 5887 5886 5884 5883 5882 5881 5880 5878 5876 5875 5873 5870 5867 5867 5864 5861 5859 5856 5855 5853 5849 5847 5845 5844 5844 5843 5843 5842 5840 5840 5839 5838 5838 5838 5837 5838 5839 5839 5840 5842 5843 5846 5847 5848 5848 5849 5850 5850 5851 5854 5857 5860 5861 5863 5865 5866 5867 5868 5871 5873 5875 5877 5879 5880 5882 5884 5885 5886 5886 5887 5887 5888 5888 5888 5888 5888 5888 5889
5889 5889 5889 5889 5888 5887 5887 5887 5886 5886 5885 5883 5883 5881 5880 5879 5878 5876 5874 5872 5871 5868 5865 5864 5861 5858 5856 5854 5853 5851 5847 5844 5842 5841 5840 5840 5839 5838 5838 5837 5836 5836 5835 5835 5835 5836 5836 5836 5837 5838 5840 5842 5844 5845 5846 5847 5848 5848 5850 5853 5856 5859 5860 5862 5864 5865 5866 5868 5870 5871 5872 5875 5878 5879 5881 5883 5884 5885 5886 5886 5886 5887 5887 5887 5888 5888 5888 5888
5888 5888 5887 5887 5886 5885 5885 5885 5885 5883 5882 5881 5881 5880 5878 5876 5875 5874 5872 5870 5869 5866 5863 5861 5859 5855 5853 5852 5850 5848 5845 5843 5840 5838 5837 5837 5836 5835 5835 5834 5834 5833 5833 5833 5833 5833 5833 5833 5834 5835 5837 5839 5841 5842 5842 5843 5845 5847 5849 5852 5855 5857 5859 5861 5863 5864 5865 5867 5869 5870 5871 5874 5877 5879 5880 5882 5883 5884 5884 5884 5884 5885 5886 5886 5887 5887 5887 5888
5885 5885 5885 5885 5885 5884 5884 5884 5883 5882 5880 5880 5879 5878 5877 5874 5873 5872 5871 5868 5867 5865 5862 5859 5856 5853 5851 5849 5847 5844 5842 5840 5839 5836 5834 5834 5833 5832 5832 5831 5831 5831 5831 5830 5830 5830 5830 5831 5831 5833 5834 5836 5837 5839 5838 5839 5842 5845 5848 5850 5852 5855 5857 5859 5861 5862 5864 5867 5868 5869 5870 5872 5876 5878 5879 5880 5882 5883 5883 5883 5883 5883 5884 5885 5885 5886 5886 5887
5883 5883 5883 5883 5883 5882 5882 5882 5881 5880 5879 5878 5877 5876 5875 5873 5871 5870 5869 5867 5865 5863 5860 5858 5855 5851 5849 5846 5844 5841 5839 5837 5836 5834 5833 5831 5830 5829 5829 5829 5828 5828 5828 5828 5827 5828 5828 5829 5829 5830 5832 5832 5833 5834 5835 5837 5841 5844 5846 5848 5851 5854 5856 5858 5860 5861 5864 5866 5867 5868 5870 5871 5874 5876 5876 5878 5880 5881 5882 5882 5882 5882 5883 5883 5884 5884 5885 5886
5881 5881 5881 5881 5881 5880 5879 5879 5879 5878 5877 5876 5875 5874 5873 5871 5869 5867 5867 5865 5863 5861 5858 5856 5853 5850 5847 5844 5841 5839 5836 5834 5832 5831 5830 5829 5828 5827 5826 5826 5826 5826 5826 5825 5825 5825 5826 5826 5827 5828 5829 5829 5829 5831 5833 5835 5839 5843 5845 5846 5849 5852 5854 5856 5858 5861 5863 5864 5865 5867 5869 5870 5872 5874 5875 5877 5879 5880 5881 5882 5882 5882 5882 5882 5882 5883 5883 5884
5879 5879 5879 5879 5879 5878 5877 5877 5877 5876 5875 5874 5873 5872 5871 5869 5867 5865 5864 5862 5860 5858 5856 5853 5850 5848 5844 5842 5839 5836 5834 5831 5829 5828 5827 5826 5826 5825 5824 5824 5823 5823 5823 5823 5822 5823 5823 5823 5824 5825 5826 5826 5826 5828 5831 5834 5837 5840 5842 5845 5848 5851 5852 5854 5857 5859 5860 5862 5864 5866 5867 5869 5870 5872 5873 5875 5877 5879 5880 5881 5881 5882 5882 5882 5882 5882 5882 5883